Flag for USA

Past Weather in Compton, California, USA — Yesterday and Last 2 Weeks

Now
71 °F

Sunny.


Feels Like: 75 °F
Forecast: 78 / 66 °F
Wind: 5 mph from Southeast

Location: Hawthorne Municipal Airport

Current Time: Jul 14, 2020 at 9:54:02 am

Latest Report: Jul 14, 2020 at 8:53 am


Visibility: 10 mi

Pressure: 29.97 "Hg

Humidity: 66%

Dew Point: 59 °F

Location of ComptonLocation

Past Weather in Compton — Graph

°F

Compton Temperature Yesterday

Maximum temperature yesterday: 79 °F (at 12:53 pm)
Minimum temperature yesterday: 66 °F (at 11:53 pm)
Average temperature yesterday: 72 °F

High & Low Weather Summary for the Past Weeks

 TemperatureHumidityPressure
High84 °F (Jul 12, 10:53 am)94% (Jul 6, 5:28 am)30.02 "Hg (Jul 6, 5:28 am)
Low61 °F (Jul 3, 4:53 am)39% (Jul 5, 10:53 am)29.81 "Hg (Jul 12, 5:53 pm)
Average70 °F70%29.91 "Hg
* Reported Jun 29 8:13 am — Jul 14 8:15 am, Compton. Weather by CustomWeather, © 2020

Note: Actual official high and low records may vary slightly from our data, if they occured in-between our weather recording intervals... More about our weather records

Compton Weather History for the Previous 24 Hours

Scroll right to see more
 ConditionsComfort  
Time TempWeatherWind HumidityBarometerVisibility
8:15 am
Tue, Jul 14
70 °FScattered clouds.3 mph66%29.97 "Hg10 mi
7:53 am70 °FOvercast.7 mph66%29.96 "Hg10 mi
6:53 am69 °FOvercast.5 mph68%29.94 "Hg10 mi
5:53 am68 °FOvercast.No wind76%29.93 "Hg9 mi
4:53 am68 °FOvercast.No wind76%29.93 "Hg10 mi
3:53 am68 °FOvercast.No wind76%29.92 "Hg10 mi
2:53 am68 °FOvercast.3 mph76%29.93 "Hg10 mi
2:38 am68 °FOvercast.No wind76%29.93 "Hg10 mi
1:53 am67 °FOvercast.No wind79%29.93 "Hg10 mi
1:22 am66 °FOvercast.No wind81%29.94 "Hg10 mi
12:53 am66 °FOvercast.No wind81%29.93 "Hg10 mi
12:23 am66 °FPassing clouds.6 mph81%29.94 "Hg10 mi
11:53 pm
Mon, Jul 13
66 °FClear.No wind81%29.93 "Hg10 mi
10:53 pm67 °FClear.7 mph79%29.93 "Hg10 mi
9:53 pm67 °FPassing clouds.8 mph79%29.92 "Hg10 mi
9:44 pm67 °FPassing clouds.9 mph79%29.92 "Hg10 mi
9:28 pm67 °FPassing clouds.8 mph79%29.92 "Hg10 mi
8:53 pm67 °FPassing clouds.6 mph76%29.90 "Hg10 mi
7:53 pm68 °FPartly sunny.9 mph78%29.89 "Hg8 mi
6:53 pm72 °FSunny.12 mph71%29.88 "Hg7 mi
5:53 pm74 °FSunny.9 mph69%29.88 "Hg9 mi
4:53 pm76 °FSunny.10 mph67%29.88 "Hg9 mi
3:53 pm78 °FSunny.10 mph60%29.88 "Hg10 mi
3:12 pm79 °FSunny.12 mph58%29.89 "Hg10 mi
3:02 pm79 °FSunny.7 mph58%29.89 "Hg1 mi
1:53 pm79 °FSunny.9 mph58%29.90 "Hg10 mi
12:53 pm79 °FSunny.9 mph58%29.91 "Hg10 mi
11:53 am78 °FSunny.8 mph62%29.91 "Hg10 mi
10:53 am78 °FSunny.7 mph58%29.91 "Hg10 mi
9:53 am75 °FSunny.6 mph64%29.90 "Hg10 mi
Weather by CustomWeather, © 2020

See weather overview